Dodge City, KS

4:05 PM CST on February 26, 2017 (GMT -0600)
Dodge City Regional

Weather History for KDDC - April, 2014

Change the Weather History Date:

Wednesday, April 2, 2014

  Actual Average Record
Temperature  
Mean Temperature 50 °F -  
Max Temperature 64 °F 63 °F 89 °F (2003)
Min Temperature 37 °F 37 °F 9 °F (1936)
Degree Days  
Heating Degree Days 14    
Moisture  
Dew Point 38 °F    
Average Humidity 73    
Maximum Humidity 96    
Minimum Humidity 34    
Precipitation  
Precipitation 0.00 in - - ()
Sea Level Pressure  
Sea Level Pressure 29.71 in    
Wind  
Wind Speed 12 mph (NE)    
Max Wind Speed 22 mph    
Max Gust Speed 24 mph    
Visibility 5 miles    
Events Fog    
Averages and records for this station are not official NWS values.
T = Trace of Precipitation, MM = Missing Value Source: NWS Daily Summary

Daily Weather History Graph

Daily Weather History Graph

Search for Another Location

Airport or City:

Trip Planner

Search our weather history database for the weather conditions in past years. The results will help you decide how hot, cold, wet, or windy it might be!

Date:

Astronomy

Apr. 02, 2014 Rise Set
Actual Time 7:23 AM CDT 8:03 PM CDT
Civil Twilight 6:57 AM CDT 8:30 PM CDT
Nautical Twilight 6:25 AM CDT 9:01 PM CDT
Astronomical Twilight 5:53 AM CDT 9:33 PM CDT
Moon 9:12 AM CDT (4/2) 11:25 PM CDT (4/2)
Length of Visible Light 13h 33m
Length of Day
12h 40m
Waxing Crescent, 10% of the Moon is Illuminated
Apr 2
Waxing Crescent
Apr 7
First Quarter
Apr 15
Full
Apr 22
Last Quarter
Apr 29
New

Hourly Weather History & Observations

Time (CDT) Temp. Windchill Dew Point Humidity Pressure Visibility Wind Dir Wind Speed Gust Speed Precip Events Conditions
12:52 AM 39.0 °F 31.8 °F 30.9 °F 73% 29.81 in 8.0 mi East 11.5 mph - N/A   Clear
1:52 AM 39.0 °F 31.4 °F 30.9 °F 73% 29.81 in 8.0 mi East 12.7 mph - N/A   Clear
2:52 AM 37.9 °F 29.6 °F 28.9 °F 70% 29.79 in 6.0 mi East 13.8 mph - N/A   Haze
3:24 AM 39.0 °F 30.6 °F 30.0 °F 70% 29.78 in 6.0 mi East 15.0 mph - N/A   Haze
3:52 AM 41.0 °F 33.5 °F 30.0 °F 65% 29.77 in 5.0 mi ENE 13.8 mph - N/A   Haze
4:52 AM 41.0 °F 33.9 °F 30.0 °F 65% 29.75 in 6.0 mi ENE 12.7 mph - N/A   Haze
5:52 AM 42.1 °F 33.9 °F 28.9 °F 60% 29.74 in 7.0 mi ENE 17.3 mph - N/A   Overcast
7:52 AM 41.0 °F 34.7 °F 30.9 °F 67% 29.77 in 6.0 mi ENE 10.4 mph - N/A   Haze
8:52 AM 41.0 °F 33.9 °F 34.0 °F 76% 29.79 in 5.0 mi ENE 12.7 mph - N/A   Haze
9:29 AM 39.9 °F 32.5 °F 36.0 °F 86% 29.77 in 2.5 mi ENE 12.7 mph - N/A   Overcast
9:52 AM 41.0 °F 34.7 °F 37.0 °F 86% 29.79 in 1.8 mi ENE 10.4 mph - N/A   Overcast
10:14 AM 41.0 °F 35.2 °F 37.9 °F 89% 29.78 in 2.0 mi NE 9.2 mph - N/A   Overcast
10:30 AM 42.1 °F 36.6 °F 37.0 °F 82% 29.78 in 2.5 mi ENE 9.2 mph - N/A   Haze
10:52 AM 42.1 °F 37.7 °F 37.9 °F 85% 29.81 in 2.5 mi NE 6.9 mph - N/A   Overcast
11:52 AM 44.1 °F 38.6 °F 37.9 °F 79% 29.79 in 4.0 mi ENE 10.4 mph - N/A   Haze
12:52 PM 46.9 °F - 39.9 °F 77% 29.78 in 4.0 mi NE 4.6 mph - N/A   Haze
1:03 PM 48.0 °F - 39.9 °F 74% 29.77 in 4.0 mi Calm Calm - N/A   Haze
1:38 PM 51.1 °F - 39.9 °F 66% 29.75 in 5.0 mi NE 5.8 mph - N/A   Haze
1:52 PM 54.0 °F - 41.0 °F 62% 29.74 in 5.0 mi NNE 8.1 mph - N/A   Haze
2:52 PM 57.0 °F - 39.9 °F 53% 29.70 in 6.0 mi Variable 3.5 mph - N/A   Haze
3:52 PM 62.1 °F - 41.0 °F 46% 29.66 in 7.0 mi Variable 6.9 mph - N/A   Clear
4:52 PM 64.4 °F - 42.8 °F 45% 29.63 in 8.0 mi NE 11.5 mph - N/A   Clear
5:52 PM 63.0 °F - 42.1 °F 46% 29.60 in 8.0 mi East 19.6 mph - N/A   Clear
6:52 PM 59.0 °F - 44.1 °F 58% 29.58 in 7.0 mi NE 20.7 mph - N/A   Clear
7:52 PM 48.9 °F - 41.0 °F 74% 29.61 in 5.0 mi NE 19.6 mph - N/A   Haze
8:47 PM 46.4 °F 39.2 °F 41.0 °F 81% 29.62 in 6.0 mi NE 18.4 mph 24.2 mph N/A   Haze
8:48 PM 46.0 °F 38.0 °F 41.0 °F 83% 29.62 in 6.0 mi NE 21.9 mph - N/A   Haze
9:52 PM 44.1 °F 35.9 °F 41.0 °F 89% 29.63 in 4.0 mi NE 19.6 mph - N/A   Overcast
10:06 PM 43.0 °F 34.5 °F 39.9 °F 89% 29.62 in 1.8 mi NE 19.6 mph - N/A   Overcast
10:19 PM 43.0 °F 35.4 °F 39.9 °F 89% 29.63 in 3.0 mi NE 16.1 mph - N/A   Overcast
10:28 PM 43.0 °F 35.7 °F 39.9 °F 89% 29.63 in 2.5 mi NE 15.0 mph 24.2 mph N/A   Overcast
10:40 PM 42.1 °F 33.3 °F 39.9 °F 92% 29.62 in 1.5 mi NE 19.6 mph - N/A   Overcast
10:52 PM 42.1 °F 33.9 °F 39.9 °F 92% 29.63 in 1.0 mi NE 17.3 mph - N/A   Overcast
11:05 PM 42.1 °F 34.2 °F 39.9 °F 92% 29.63 in 0.8 mi NE 16.1 mph - N/A   Mist
11:52 PM 41.0 °F 33.5 °F 39.9 °F 96% 29.64 in 0.5 mi NE 13.8 mph - N/A Fog Fog